| time (UTC) | temp F | wind direction | speed MPH | gust MPH | rain 1hr in | rain 24hr in | rain mn in | humidity % | barometer mb |
| 20260508114559 | 57 | 19 | 0.0 | 1.0 | 0.00 | 0.00 | 0.00 | 75 | 1006.6 |
| 20260508113106 | 57 | 20 | 1.0 | 3.0 | 0.00 | 0.00 | 0.00 | 71 | 1006.5 |
| 20260508111610 | 58 | 20 | 0.0 | 2.0 | 0.00 | 0.00 | 0.00 | 71 | 1006.4 |
| 20260508110059 | 58 | 21 | 1.0 | 4.0 | 0.00 | 0.00 | 0.00 | 68 | 1006.4 |
| 20260508104604 | 58 | 17 | 1.0 | 6.0 | 0.00 | 0.00 | 0.00 | 68 | 1005.7 |
| 20260508103057 | 58 | 18 | 3.0 | 7.0 | 0.00 | 0.00 | 0.00 | 70 | 1005.7 |
| 20260508101557 | 56 | 19 | 1.0 | 3.0 | 0.00 | 0.00 | 0.00 | 73 | 1005.6 |
| 20260508100055 | 56 | 18 | 0.0 | 3.0 | 0.00 | 0.00 | 0.00 | 74 | 1005.6 |
| 20260508094554 | 56 | 18 | 0.0 | 2.0 | 0.00 | 0.00 | 0.00 | 73 | 1005.7 |
| 20260508093055 | 57 | 19 | 0.0 | 0.0 | 0.00 | 0.00 | 0.00 | 71 | 1005.6 |
| 20260508091557 | 57 | 20 | 0.0 | 3.0 | 0.00 | 0.00 | 0.00 | 69 | 1005.9 |
| 20260508090059 | 58 | 16 | 0.0 | 4.0 | 0.00 | 0.00 | 0.00 | 67 | 1005.8 |
| 20260508084548 | 58 | 20 | 1.0 | 6.0 | 0.00 | 0.00 | 0.00 | 66 | 1005.8 |
| 20260508083046 | 58 | 24 | 0.0 | 4.0 | 0.00 | 0.00 | 0.00 | 66 | 1005.7 |
| 20260508081553 | 58 | 26 | 0.0 | 7.0 | 0.00 | 0.00 | 0.00 | 67 | 1005.9 |
| 20260508080052 | 58 | 18 | 2.0 | 7.0 | 0.00 | 0.00 | 0.00 | 67 | 1005.8 |
| 20260508074542 | 58 | 16 | 3.0 | 8.0 | 0.00 | 0.00 | 0.00 | 67 | 1006.1 |
| 20260508073046 | 58 | 16 | 2.0 | 7.0 | 0.00 | 0.00 | 0.00 | 67 | 1006.4 |
| 20260508071554 | 58 | 14 | 2.0 | 6.0 | 0.00 | 0.00 | 0.00 | 66 | 1006.7 |
| 20260508070051 | 58 | 12 | 1.0 | 5.0 | 0.00 | 0.00 | 0.00 | 66 | 1006.8 |
| 20260508064536 | 59 | 16 | 1.0 | 6.0 | 0.00 | 0.00 | 0.00 | 65 | 1006.9 |
| 20260508063031 | 59 | 21 | 2.0 | 8.0 | 0.00 | 0.00 | 0.00 | 64 | 1007.2 |
| 20260508061531 | 59 | 18 | 1.0 | 8.0 | 0.00 | 0.00 | 0.00 | 64 | 1007.4 |
| 20260508060034 | 60 | 10 | 3.0 | 9.0 | 0.00 | 0.00 | 0.00 | 63 | 1007.4 |
| 20260508054531 | 60 | 21 | 2.0 | 12.0 | 0.00 | 0.00 | 0.00 | 63 | 1007.4 |
| 20260508053025 | 61 | 19 | 3.0 | 9.0 | 0.00 | 0.00 | 0.00 | 62 | 1007.4 |
| 20260508051522 | 61 | 17 | 3.0 | 12.0 | 0.00 | 0.00 | 0.00 | 61 | 1007.3 |
| 20260508050021 | 61 | 18 | 4.0 | 12.0 | 0.00 | 0.00 | 0.00 | 61 | 1007.4 |
| 20260508044521 | 62 | 18 | 3.0 | 11.0 | 0.00 | 0.00 | 0.00 | 60 | 1007.5 |
| 20260508043021 | 62 | 18 | 3.0 | 11.0 | 0.00 | 0.00 | 0.00 | 59 | 1007.5 |
| 20260508041520 | 62 | 14 | 2.0 | 8.0 | 0.00 | 0.00 | 0.00 | 59 | 1007.7 |
| 20260508040028 | 63 | 20 | 1.0 | 10.0 | 0.00 | 0.00 | 0.00 | 58 | 1007.6 |
| 20260508034520 | 63 | 17 | 4.0 | 9.0 | 0.00 | 0.00 | 0.00 | 58 | 1007.6 |
| 20260508033020 | 63 | 19 | 2.0 | 7.0 | 0.00 | 0.00 | 0.00 | 57 | 1007.6 |
| 20260508031519 | 63 | 21 | 1.0 | 7.0 | 0.00 | 0.00 | 0.00 | 57 | 1007.6 |
| 20260508030025 | 63 | 18 | 1.0 | 7.0 | 0.00 | 0.00 | 0.00 | 57 | 1007.4 |
| 20260508024526 | 64 | 14 | 3.0 | 11.0 | 0.00 | 0.00 | 0.00 | 56 | 1007.2 |
| 20260508023020 | 64 | 16 | 1.0 | 11.0 | 0.00 | 0.00 | 0.00 | 55 | 1007.1 |
| 20260508021519 | 64 | 15 | 2.0 | 4.0 | 0.00 | 0.00 | 0.00 | 55 | 1006.8 |
| 20260508020016 | 65 | 13 | 1.0 | 3.0 | 0.00 | 0.00 | 0.00 | 54 | 1006.8 |
| 20260508014522 | 65 | 16 | 0.0 | 3.0 | 0.00 | 0.00 | 0.00 | 53 | 1006.6 |
| 20260508013015 | 66 | 16 | 1.0 | 3.0 | 0.00 | 0.00 | 0.00 | 52 | 1006.6 |
| 20260508011516 | 67 | 21 | 1.0 | 4.0 | 0.00 | 0.00 | 0.00 | 51 | 1006.6 |
| 20260508010014 | 68 | 23 | 0.0 | 5.0 | 0.00 | 0.00 | 0.00 | 49 | 1006.5 |
| 20260508004515 | 69 | 23 | 0.0 | 5.0 | 0.00 | 0.00 | 0.00 | 48 | 1006.6 |
| 20260508003014 | 70 | 24 | 1.0 | 5.0 | 0.00 | 0.00 | 0.00 | 47 | 1006.5 |
| 20260508001531 | 71 | 31 | 1.0 | 9.0 | 0.00 | 0.00 | 0.00 | 46 | 1006.6 |
| 20260508000011 | 71 | 359 | 3.0 | 7.0 | 0.00 | 0.00 | 0.00 | 44 | 1006.7 |
| 20260507234510 | 71 | 359 | 2.0 | 7.0 | 0.00 | 0.00 | 0.00 | 43 | 1006.8 |
| 20260507233020 | 71 | 48 | 2.0 | 9.0 | 0.00 | 0.00 | 0.00 | 43 | 1007.0 |
| 20260507231511 | 71 | 121 | 3.0 | 11.0 | 0.00 | 0.00 | 0.00 | 43 | 1007.1 |
| 20260507230018 | 71 | 180 | 5.0 | 13.0 | 0.00 | 0.00 | 0.00 | 44 | 1007.3 |
| 20260507224505 | 72 | 144 | 5.0 | 12.0 | 0.00 | 0.00 | 0.00 | 43 | 1007.5 |
| 20260507223002 | 71 | 359 | 3.0 | 12.0 | 0.00 | 0.00 | 0.00 | 44 | 1007.7 |
| 20260507221501 | 71 | 359 | 6.0 | 13.0 | 0.00 | 0.00 | 0.00 | 44 | 1007.7 |
| 20260507220100 | 71 | 359 | 3.0 | 15.0 | 0.00 | 0.00 | 0.00 | 44 | 1007.7 |
| 20260507214558 | 70 | 209 | 6.0 | 13.0 | 0.00 | 0.00 | 0.00 | 45 | 1007.8 |
| 20260507213100 | 70 | 170 | 7.0 | 21.0 | 0.00 | 0.00 | 0.00 | 45 | 1007.9 |
| 20260507211555 | 70 | 210 | 7.0 | 18.0 | 0.00 | 0.00 | 0.00 | 44 | 1008.2 |
| 20260507210053 | 70 | 209 | 5.0 | 17.0 | 0.00 | 0.00 | 0.00 | 45 | 1008.3 |
| 20260507204550 | 70 | 147 | 5.0 | 14.0 | 0.00 | 0.00 | 0.00 | 48 | 1008.4 |
| 20260507203046 | 69 | 123 | 5.0 | 16.0 | 0.00 | 0.00 | 0.00 | 47 | 1008.9 |
| 20260507201549 | 69 | 143 | 5.0 | 17.0 | 0.00 | 0.00 | 0.00 | 48 | 1009.1 |
| 20260507200044 | 68 | 118 | 4.0 | 15.0 | 0.00 | 0.00 | 0.00 | 50 | 1009.4 |
| 20260507194539 | 68 | 234 | 4.0 | 22.0 | 0.00 | 0.00 | 0.00 | 52 | 1009.7 |
| 20260507193041 | 68 | 270 | 8.0 | 16.0 | 0.00 | 0.00 | 0.00 | 49 | 1010.0 |
| 20260507191535 | 67 | 213 | 7.0 | 19.0 | 0.00 | 0.00 | 0.00 | 49 | 1010.2 |
| 20260507190033 | 66 | 143 | 6.0 | 18.0 | 0.00 | 0.00 | 0.00 | 51 | 1010.2 |
| 20260507184533 | 66 | 200 | 6.0 | 15.0 | 0.00 | 0.00 | 0.00 | 53 | 1010.4 |
| 20260507183034 | 67 | 235 | 7.0 | 15.0 | 0.00 | 0.00 | 0.00 | 51 | 1010.5 |
| 20260507181525 | 65 | 283 | 1.0 | 13.0 | 0.00 | 0.00 | 0.00 | 54 | 1010.8 |
| 20260507180037 | 65 | 210 | 9.0 | 19.0 | 0.00 | 0.00 | 0.00 | 52 | 1011.1 |
| 20260507174524 | 65 | 216 | 7.0 | 15.0 | 0.00 | 0.00 | 0.00 | 51 | 1011.5 |
| 20260507173023 | 64 | 249 | 7.0 | 14.0 | 0.00 | 0.00 | 0.00 | 52 | 1011.9 |
| 20260507171514 | 63 | 241 | 4.0 | 16.0 | 0.00 | 0.00 | 0.00 | 54 | 1011.9 |
| 20260507170029 | 63 | 212 | 6.0 | 14.0 | 0.00 | 0.00 | 0.00 | 55 | 1012.1 |
| 20260507164508 | 62 | 265 | 4.0 | 17.0 | 0.00 | 0.00 | 0.00 | 57 | 1012.4 |
| 20260507163006 | 62 | 253 | 6.0 | 17.0 | 0.00 | 0.00 | 0.00 | 57 | 1012.8 |
| 20260507161506 | 62 | 316 | 6.0 | 14.0 | 0.00 | 0.00 | 0.00 | 56 | 1012.9 |
| 20260507160002 | 61 | 243 | 5.0 | 12.0 | 0.00 | 0.00 | 0.00 | 58 | 1013.0 |
| 20260507154602 | 60 | 260 | 5.0 | 17.0 | 0.00 | 0.00 | 0.00 | 60 | 1013.0 |
| 20260507153107 | 60 | 209 | 6.0 | 13.0 | 0.00 | 0.00 | 0.00 | 60 | 1013.0 |
| 20260507151555 | 59 | 284 | 2.0 | 13.0 | 0.00 | 0.00 | 0.00 | 62 | 1013.2 |
| 20260507150055 | 58 | 185 | 6.0 | 17.0 | 0.00 | 0.00 | 0.00 | 62 | 1013.4 |
| 20260507144550 | 58 | 224 | 5.0 | 11.0 | 0.00 | 0.00 | 0.00 | 65 | 1013.6 |
| 20260507143057 | 57 | 152 | 3.0 | 15.0 | 0.00 | 0.00 | 0.00 | 65 | 1013.6 |
| 20260507141547 | 56 | 195 | 4.0 | 11.0 | 0.00 | 0.00 | 0.00 | 67 | 1013.5 |
| 20260507140040 | 55 | 306 | 3.0 | 11.0 | 0.00 | 0.00 | 0.00 | 70 | 1013.8 |
| 20260507134536 | 54 | 281 | 4.0 | 12.0 | 0.00 | 0.00 | 0.00 | 72 | 1013.6 |
| 20260507133042 | 53 | 170 | 3.0 | 10.0 | 0.00 | 0.00 | 0.00 | 74 | 1013.6 |
| 20260507131537 | 51 | 175 | 3.0 | 9.0 | 0.00 | 0.00 | 0.00 | 76 | 1013.7 |
| 20260507130034 | 50 | 210 | 4.0 | 8.0 | 0.00 | 0.00 | 0.00 | 77 | 1013.9 |
| 20260507124528 | 49 | 207 | 3.0 | 9.0 | 0.00 | 0.00 | 0.00 | 78 | 1014.1 |
| 20260507123028 | 48 | 175 | 1.0 | 8.0 | 0.00 | 0.00 | 0.00 | 80 | 1014.0 |
| 20260507121527 | 47 | 212 | 3.0 | 7.0 | 0.00 | 0.00 | 0.00 | 81 | 1014.1 |